Location: Seven Kings
(51.5667°N, 0.1000°E)
Time: 14:09:30
(UTC+00:00)

Cosmos 2369 - Pass Details

Date: 29 October 2020
Orbit: 841 x 854 km, 71.0° (Epoch: 28 November)

Event Time Altitude Azimuth Distance (km) Brightness Sun altitude
Rises 18:27:45 0° 191° (SSW) 3,410 7.0 -17.6°
Reaches altitude 10° 18:30:15 10° 187° (S) 2,477 6.2 -18.0°
Maximum altitude 18:35:45 53° 112° (ESE) 1,041 3.8 -18.9°
Enters shadow 18:39:14 22° 45° (NE) 1,767 5.0 -19.4°
